| time (UTC) | temp F | wind direction | speed knots | gust knots | rain 1hr in | rain 24hr in | rain mn in | humidity % | barometer mb |
| 20260903065751 | 73 | 156 | 0.0 | 1.7 | 0.00 | 0.11 | 0.00 | 95 | 1016.1 |
| 20260903065505 | 73 | 156 | 0.0 | 1.7 | 0.00 | 0.11 | 0.00 | 95 | 1016.2 |
| 20260903064740 | 73 | 148 | 0.0 | 0.9 | 0.00 | 0.11 | 0.00 | 95 | 1016.3 |
| 20260903064723 | 73 | 148 | 0.0 | 0.9 | 0.00 | 0.11 | 0.00 | 95 | 1016.3 |
| 20260903063727 | 73 | 148 | 0.0 | 0.9 | 0.00 | 0.11 | 0.00 | 95 | 1016.4 |
| 20260903063221 | 72 | 148 | 0.0 | 0.9 | 0.00 | 0.11 | 0.00 | 95 | 1016.5 |
| 20260903062715 | 72 | 148 | 0.0 | 0.9 | 0.00 | 0.11 | 0.00 | 95 | 1016.4 |
| 20260903062437 | 72 | 148 | 0.0 | 0.9 | 0.00 | 0.11 | 0.00 | 95 | 1016.6 |
| 20260903062147 | 72 | 148 | 0.0 | 0.9 | 0.00 | 0.11 | 0.00 | 95 | 1016.5 |
| 20260903061157 | 72 | 148 | 0.0 | 0.9 | 0.00 | 0.11 | 0.00 | 95 | 1016.6 |
| 20260903060651 | 72 | 148 | 0.0 | 0.9 | 0.00 | 0.11 | 0.00 | 95 | 1016.8 |
| 20260903060145 | 72 | 148 | 0.0 | 0.9 | 0.00 | 0.11 | 0.00 | 95 | 1016.8 |
| 20260903055900 | 72 | 148 | 0.0 | 1.7 | 0.00 | 0.11 | 0.00 | 95 | 1016.9 |
| 20260903055133 | 72 | 148 | 0.9 | 1.7 | 0.00 | 0.11 | 0.00 | 95 | 1017.0 |
| 20260903054627 | 72 | 148 | 0.9 | 1.7 | 0.00 | 0.11 | 0.00 | 95 | 1017.0 |
| 20260903054121 | 72 | 148 | 0.9 | 2.6 | 0.00 | 0.11 | 0.00 | 94 | 1017.0 |
| 20260903053615 | 72 | 139 | 0.9 | 2.6 | 0.00 | 0.11 | 0.00 | 95 | 1017.1 |
| 20260903053109 | 72 | 153 | 0.0 | 2.6 | 0.00 | 0.11 | 0.00 | 94 | 1017.2 |
| 20260903052832 | 72 | 77 | 0.0 | 0.9 | 0.00 | 0.11 | 0.00 | 94 | 1017.3 |
| 20260903052058 | 72 | 77 | 0.0 | 0.9 | 0.00 | 0.11 | 0.00 | 94 | 1017.3 |
| 20260903052035 | 72 | 77 | 0.0 | 0.9 | 0.00 | 0.11 | 0.00 | 94 | 1017.2 |
| 20260903051045 | 72 | 77 | 0.0 | 0.9 | 0.00 | 0.11 | 0.00 | 94 | 1017.2 |
| 20260903050542 | 72 | 77 | 0.0 | 0.0 | 0.00 | 0.11 | 0.00 | 94 | 1017.1 |
| 20260903050033 | 72 | 77 | 0.0 | 0.0 | 0.00 | 0.11 | 0.00 | 94 | 1017.1 |
| 20260903045753 | 72 | 77 | 0.0 | 0.0 | 0.00 | 0.11 | 0.00 | 94 | 1017.2 |
| 20260903045020 | 72 | 77 | 0.0 | 0.9 | 0.00 | 0.11 | 0.00 | 94 | 1017.3 |
| 20260903044514 | 72 | 77 | 0.0 | 0.9 | 0.00 | 0.11 | 0.00 | 94 | 1017.2 |
| 20260903044009 | 72 | 77 | 0.0 | 0.0 | 0.00 | 0.11 | 0.00 | 94 | 1017.2 |
| 20260903043723 | 72 | 77 | 0.0 | 0.9 | 0.00 | 0.11 | 0.00 | 94 | 1017.1 |
| 20260903042958 | 72 | 77 | 0.0 | 0.9 | 0.00 | 0.11 | 0.00 | 94 | 1017.2 |
| 20260903042712 | 72 | 77 | 0.0 | 0.0 | 0.00 | 0.11 | 0.00 | 94 | 1017.2 |
| 20260903042209 | 72 | 77 | 0.0 | 0.9 | 0.00 | 0.11 | 0.00 | 93 | 1017.2 |
| 20260903041439 | 72 | 77 | 0.0 | 0.9 | 0.00 | 0.11 | 0.00 | 93 | 1017.3 |
| 20260903040933 | 72 | 77 | 0.0 | 0.0 | 0.00 | 0.11 | 0.00 | 93 | 1017.3 |
| 20260903040427 | 72 | 77 | 0.0 | 0.9 | 0.00 | 0.11 | 0.00 | 93 | 1017.4 |
| 20260903035921 | 72 | 77 | 0.0 | 0.9 | 0.00 | 0.11 | 0.11 | 93 | 1017.4 |
| 20260903035415 | 72 | 77 | 0.0 | 0.9 | 0.00 | 0.11 | 0.11 | 93 | 1017.3 |
| 20260903035401 | 72 | 77 | 0.0 | 0.9 | 0.00 | 0.11 | 0.11 | 93 | 1017.4 |
| 20260903034402 | 72 | 10 | 0.0 | 0.9 | 0.00 | 0.11 | 0.11 | 93 | 1017.3 |
| 20260903033857 | 72 | 10 | 0.0 | 0.9 | 0.00 | 0.11 | 0.11 | 93 | 1017.3 |
| 20260903033614 | 72 | 10 | 0.0 | 0.0 | 0.00 | 0.11 | 0.11 | 93 | 1017.2 |
| 20260903032845 | 72 | 10 | 0.0 | 0.0 | 0.00 | 0.11 | 0.11 | 93 | 1017.1 |
| 20260903032339 | 73 | 10 | 0.0 | 0.0 | 0.00 | 0.11 | 0.11 | 93 | 1017.1 |
| 20260903031833 | 73 | 10 | 0.0 | 0.0 | 0.00 | 0.11 | 0.11 | 93 | 1017.2 |
| 20260903031327 | 73 | 10 | 0.0 | 0.0 | 0.00 | 0.11 | 0.11 | 93 | 1017.1 |
| 20260903031047 | 73 | 10 | 0.0 | 0.0 | 0.00 | 0.11 | 0.11 | 93 | 1017.0 |
| 20260903030534 | 73 | 10 | 0.0 | 0.0 | 0.00 | 0.11 | 0.11 | 93 | 1017.0 |
| 20260903025809 | 73 | 10 | 0.0 | 0.0 | 0.00 | 0.11 | 0.11 | 93 | 1016.9 |
| 20260903025527 | 73 | 10 | 0.0 | 0.0 | 0.00 | 0.11 | 0.11 | 93 | 1016.9 |
| 20260903024959 | 73 | 10 | 0.0 | 0.0 | 0.00 | 0.11 | 0.11 | 93 | 1016.9 |
| 20260903024841 | 73 | 10 | 0.0 | 0.0 | 0.00 | 0.11 | 0.11 | 93 | 1016.9 |
| 20260903023745 | 73 | 10 | 0.0 | 0.0 | 0.00 | 0.11 | 0.11 | 93 | 1016.9 |
| 20260903023239 | 73 | 10 | 0.0 | 0.0 | 0.00 | 0.11 | 0.11 | 93 | 1016.8 |
| 20260903023214 | 73 | 10 | 0.0 | 0.0 | 0.00 | 0.11 | 0.11 | 93 | 1016.8 |
| 20260903022227 | 74 | 10 | 0.0 | 0.0 | 0.00 | 0.11 | 0.11 | 93 | 1016.8 |
| 20260903021721 | 74 | 10 | 0.0 | 0.0 | 0.00 | 0.11 | 0.11 | 93 | 1016.9 |
| 20260903021448 | 74 | 10 | 0.0 | 0.0 | 0.00 | 0.11 | 0.11 | 93 | 1016.9 |
| 20260903020930 | 74 | 10 | 0.0 | 0.9 | 0.00 | 0.11 | 0.11 | 93 | 1016.9 |
| 20260903020203 | 74 | 10 | 0.0 | 0.9 | 0.00 | 0.11 | 0.11 | 93 | 1016.9 |
| 20260903015657 | 74 | 10 | 0.0 | 0.0 | 0.00 | 0.11 | 0.11 | 93 | 1017.1 |
| 20260903015157 | 74 | 10 | 0.0 | 0.0 | 0.00 | 0.11 | 0.11 | 93 | 1017.2 |
| 20260903014654 | 74 | 10 | 0.0 | 0.0 | 0.00 | 0.11 | 0.11 | 93 | 1017.2 |
| 20260903014154 | 74 | 10 | 0.0 | 0.0 | 0.00 | 0.11 | 0.11 | 93 | 1017.3 |
| 20260903013652 | 74 | 10 | 0.0 | 0.0 | 0.00 | 0.11 | 0.11 | 93 | 1017.3 |
| 20260903013149 | 74 | 10 | 0.0 | 0.0 | 0.00 | 0.11 | 0.11 | 93 | 1017.3 |
| 20260903012647 | 75 | 10 | 0.0 | 0.0 | 0.00 | 0.11 | 0.11 | 93 | 1017.3 |
| 20260903012147 | 75 | 10 | 0.0 | 0.0 | 0.00 | 0.11 | 0.11 | 93 | 1017.3 |
| 20260903011647 | 75 | 10 | 0.0 | 0.0 | 0.00 | 0.11 | 0.11 | 93 | 1017.4 |
| 20260903011411 | 75 | 10 | 0.0 | 0.9 | 0.00 | 0.11 | 0.11 | 93 | 1017.5 |
| 20260903010647 | 75 | 10 | 0.0 | 0.9 | 0.00 | 0.11 | 0.11 | 93 | 1017.3 |
| 20260903010147 | 75 | 346 | 0.0 | 0.9 | 0.00 | 0.11 | 0.11 | 93 | 1017.1 |
| 20260903005647 | 75 | 346 | 0.0 | 0.9 | 0.00 | 0.11 | 0.11 | 93 | 1017.3 |
| 20260903005145 | 75 | 59 | 0.0 | 1.7 | 0.00 | 0.11 | 0.11 | 93 | 1017.5 |
| 20260903004644 | 75 | 33 | 0.0 | 1.7 | 0.00 | 0.11 | 0.11 | 93 | 1017.5 |
| 20260903004357 | 76 | 86 | 0.0 | 0.0 | 0.00 | 0.11 | 0.11 | 93 | 1017.5 |
| 20260903003640 | 76 | 86 | 0.0 | 0.0 | 0.00 | 0.11 | 0.11 | 93 | 1017.5 |
| 20260903003139 | 76 | 86 | 0.0 | 0.0 | 0.00 | 0.11 | 0.11 | 93 | 1017.6 |
| 20260903002638 | 76 | 86 | 0.0 | 0.0 | 0.00 | 0.11 | 0.11 | 93 | 1017.7 |
| 20260903002136 | 76 | 86 | 0.0 | 0.0 | 0.00 | 0.11 | 0.11 | 93 | 1017.6 |
| 20260903001637 | 76 | 86 | 0.0 | 0.0 | 0.00 | 0.11 | 0.11 | 93 | 1017.5 |
| 20260903001132 | 76 | 86 | 0.0 | 0.0 | 0.00 | 0.11 | 0.11 | 93 | 1017.5 |
| 20260903000626 | 76 | 86 | 0.0 | 0.0 | 0.00 | 0.11 | 0.11 | 93 | 1017.6 |
| 20260903000125 | 76 | 86 | 0.0 | 0.0 | 0.00 | 0.11 | 0.11 | 92 | 1017.5 |
| 20260902235625 | 76 | 86 | 0.0 | 0.0 | 0.00 | 0.11 | 0.11 | 93 | 1017.5 |
| 20260902235124 | 76 | 86 | 0.0 | 0.0 | 0.00 | 0.11 | 0.11 | 92 | 1017.5 |
| 20260902234626 | 76 | 86 | 0.0 | 0.0 | 0.00 | 0.11 | 0.11 | 92 | 1017.6 |
| 20260902234123 | 76 | 86 | 0.0 | 0.0 | 0.00 | 0.11 | 0.11 | 92 | 1017.6 |
| 20260902233621 | 76 | 86 | 0.0 | 0.0 | 0.00 | 0.11 | 0.11 | 92 | 1017.5 |
| 20260902233118 | 76 | 86 | 0.0 | 0.0 | 0.00 | 0.11 | 0.11 | 93 | 1017.3 |
| 20260902232618 | 76 | 86 | 0.0 | 0.0 | 0.00 | 0.11 | 0.11 | 93 | 1017.1 |
| 20260902232333 | 76 | 86 | 0.0 | 0.0 | 0.00 | 0.11 | 0.11 | 93 | 1017.4 |
| 20260902231617 | 77 | 86 | 0.0 | 0.0 | 0.00 | 0.11 | 0.11 | 93 | 1017.6 |
| 20260902231116 | 77 | 86 | 0.0 | 0.0 | 0.00 | 0.11 | 0.11 | 93 | 1017.4 |
| 20260902230617 | 77 | 86 | 0.0 | 0.0 | 0.00 | 0.11 | 0.11 | 93 | 1017.8 |
| 20260902230550 | 77 | 86 | 0.0 | 0.0 | 0.00 | 0.11 | 0.11 | 93 | 1018.1 |
| 20260902225612 | 77 | 86 | 0.0 | 0.0 | 0.00 | 0.11 | 0.11 | 93 | 1018.0 |
| 20260902225602 | 77 | 86 | 0.0 | 0.0 | 0.00 | 0.11 | 0.11 | 93 | 1017.7 |
| 20260902224613 | 77 | 86 | 0.0 | 0.0 | 0.00 | 0.11 | 0.11 | 94 | 1017.8 |
| 20260902224111 | 77 | 86 | 0.0 | 0.0 | 0.00 | 0.11 | 0.11 | 94 | 1018.0 |
| 20260902223830 | 77 | 86 | 0.0 | 0.0 | 0.00 | 0.11 | 0.11 | 94 | 1017.9 |
| 20260902223117 | 77 | 86 | 0.0 | 0.0 | 0.00 | 0.11 | 0.11 | 94 | 1017.8 |
| 20260902222842 | 77 | 86 | 0.0 | 0.0 | 0.00 | 0.11 | 0.11 | 93 | 1018.0 |
| 20260902222113 | 76 | 86 | 0.0 | 0.9 | 0.00 | 0.11 | 0.11 | 93 | 1017.7 |
| 20260902222048 | 77 | 86 | 0.0 | 0.9 | 0.00 | 0.11 | 0.11 | 93 | 1017.6 |
| 20260902221335 | 77 | 86 | 0.0 | 0.9 | 0.00 | 0.11 | 0.11 | 91 | 1017.7 |
| 20260902220614 | 77 | 86 | 0.0 | 0.9 | 0.00 | 0.11 | 0.11 | 91 | 1017.5 |
| 20260902220113 | 77 | 86 | 0.0 | 0.9 | 0.00 | 0.11 | 0.11 | 91 | 1017.2 |
| 20260902215613 | 77 | 86 | 0.0 | 0.9 | 0.00 | 0.11 | 0.11 | 91 | 1017.2 |
| 20260902215115 | 77 | 86 | 0.0 | 0.0 | 0.00 | 0.11 | 0.11 | 90 | 1017.3 |
| 20260902214611 | 77 | 86 | 0.0 | 0.0 | 0.00 | 0.11 | 0.11 | 90 | 1017.5 |
| 20260902214109 | 77 | 86 | 0.0 | 0.0 | 0.00 | 0.11 | 0.11 | 90 | 1017.6 |
| 20260902213606 | 78 | 86 | 0.0 | 0.0 | 0.00 | 0.11 | 0.11 | 90 | 1017.6 |
| 20260902213107 | 78 | 86 | 0.0 | 0.0 | 0.00 | 0.11 | 0.11 | 90 | 1017.8 |
| 20260902212606 | 78 | 86 | 0.0 | 0.9 | 0.00 | 0.11 | 0.11 | 89 | 1017.7 |
| 20260902212100 | 78 | 86 | 0.0 | 0.9 | 0.00 | 0.11 | 0.11 | 89 | 1017.8 |
| 20260902211552 | 78 | 86 | 0.0 | 1.7 | 0.01 | 0.11 | 0.11 | 89 | 1017.8 |
| 20260902211053 | 78 | 86 | 0.0 | 1.7 | 0.01 | 0.11 | 0.11 | 89 | 1018.0 |
| 20260902210550 | 78 | 86 | 0.0 | 0.9 | 0.01 | 0.11 | 0.11 | 88 | 1017.9 |
| 20260902210049 | 79 | 86 | 0.0 | 0.9 | 0.01 | 0.11 | 0.11 | 88 | 1018.1 |
| 20260902205546 | 79 | 86 | 0.0 | 0.9 | 0.03 | 0.11 | 0.11 | 88 | 1018.4 |
| 20260902205043 | 79 | 41 | 0.0 | 0.9 | 0.04 | 0.11 | 0.11 | 88 | 1018.4 |
| 20260902204544 | 80 | 92 | 0.0 | 0.9 | 0.05 | 0.11 | 0.11 | 87 | 1018.2 |
| 20260902204041 | 80 | 325 | 0.0 | 0.0 | 0.06 | 0.11 | 0.11 | 87 | 1018.3 |
| 20260902203805 | 80 | 325 | 0.0 | 0.0 | 0.09 | 0.11 | 0.11 | 86 | 1018.2 |
| 20260902203038 | 80 | 325 | 0.0 | 0.9 | 0.11 | 0.11 | 0.11 | 85 | 1017.8 |
| 20260902202535 | 81 | 49 | 0.0 | 0.9 | 0.11 | 0.11 | 0.11 | 85 | 1017.4 |
| 20260902202033 | 82 | 49 | 0.0 | 0.9 | 0.11 | 0.11 | 0.11 | 83 | 1017.4 |
| 20260902201755 | 82 | 337 | 0.0 | 0.9 | 0.10 | 0.10 | 0.10 | 82 | 1017.8 |
| 20260902201027 | 83 | 337 | 0.0 | 2.6 | 0.10 | 0.10 | 0.10 | 81 | 1017.7 |
| 20260902200525 | 83 | 23 | 0.9 | 2.6 | 0.10 | 0.10 | 0.10 | 80 | 1018.1 |
| 20260902200242 | 84 | 103 | 0.0 | 0.9 | 0.10 | 0.10 | 0.10 | 77 | 1018.2 |
| 20260902195524 | 85 | 103 | 0.9 | 2.6 | 0.08 | 0.08 | 0.09 | 76 | 1018.3 |
| 20260902195021 | 86 | 105 | 0.9 | 5.2 | 0.07 | 0.07 | 0.07 | 74 | 1018.4 |
| 20260902194517 | 87 | 98 | 0.9 | 5.2 | 0.06 | 0.06 | 0.06 | 73 | 1018.8 |
| 20260902194017 | 88 | 37 | 0.9 | 1.7 | 0.05 | 0.05 | 0.05 | 76 | 1019.0 |
| 20260902193517 | 88 | 64 | 0.0 | 1.7 | 0.02 | 0.02 | 0.03 | 72 | 1018.4 |
| 20260902193236 | 88 | 144 | 0.9 | 3.5 | 0.00 | 0.00 | 0.00 | 66 | 1018.1 |
| 20260902192512 | 89 | 144 | 1.7 | 6.1 | 0.00 | 0.00 | 0.00 | 62 | 1018.3 |
| 20260902192012 | 92 | 159 | 2.6 | 6.1 | 0.00 | 0.00 | 0.00 | 58 | 1018.3 |
| 20260902191506 | 94 | 317 | 2.6 | 5.2 | 0.00 | 0.00 | 0.00 | 60 | 1017.9 |
| 20260902191000 | 94 | 155 | 1.7 | 5.2 | 0.00 | 0.00 | 0.00 | 60 | 1017.5 |
| 20260902190454 | 94 | 146 | 1.7 | 4.3 | 0.00 | 0.00 | 0.00 | 60 | 1017.2 |
| 20260902190436 | 92 | 121 | 1.7 | 3.5 | 0.00 | 0.00 | 0.00 | 63 | 1017.2 |
| 20260902185442 | 92 | 153 | 1.7 | 3.5 | 0.00 | 0.00 | 0.00 | 63 | 1017.3 |
| 20260902184936 | 90 | 142 | 1.7 | 3.5 | 0.00 | 0.00 | 0.00 | 63 | 1017.5 |
| 20260902184431 | 91 | 120 | 1.7 | 3.5 | 0.00 | 0.00 | 0.00 | 63 | 1017.6 |
| 20260902183924 | 92 | 130 | 1.7 | 3.5 | 0.00 | 0.00 | 0.00 | 60 | 1017.8 |
| 20260902183419 | 93 | 144 | 0.9 | 3.5 | 0.00 | 0.00 | 0.00 | 58 | 1017.8 |
| 20260902182912 | 95 | 110 | 0.9 | 3.5 | 0.00 | 0.00 | 0.00 | 56 | 1017.8 |
| 20260902182629 | 95 | 153 | 0.9 | 1.7 | 0.00 | 0.00 | 0.00 | 56 | 1017.7 |
| 20260902181901 | 95 | 81 | 0.9 | 2.6 | 0.00 | 0.00 | 0.00 | 56 | 1017.7 |
| 20260902181354 | 95 | 159 | 0.9 | 2.6 | 0.00 | 0.00 | 0.00 | 55 | 1017.6 |
| 20260902180848 | 97 | 120 | 0.9 | 2.6 | 0.00 | 0.00 | 0.00 | 54 | 1017.6 |
| 20260902180343 | 96 | 122 | 1.7 | 2.6 | 0.00 | 0.00 | 0.00 | 55 | 1017.7 |
| 20260902180104 | 96 | 163 | 0.9 | 6.1 | 0.00 | 0.00 | 0.00 | 57 | 1017.8 |
| 20260902175330 | 95 | 0 | 0.9 | 6.1 | 0.00 | 0.00 | 0.00 | 57 | 1017.9 |
| 20260902174825 | 93 | 21 | 0.9 | 1.7 | 0.00 | 0.00 | 0.00 | 61 | 1017.9 |
| 20260902174318 | 92 | 120 | 0.9 | 2.6 | 0.00 | 0.00 | 0.00 | 61 | 1018.0 |
| 20260902173812 | 93 | 36 | 0.9 | 3.5 | 0.00 | 0.00 | 0.00 | 59 | 1017.9 |
| 20260902173306 | 94 | 191 | 0.9 | 3.5 | 0.00 | 0.00 | 0.00 | 58 | 1018.0 |
| 20260902173026 | 95 | 72 | 0.9 | 2.6 | 0.00 | 0.00 | 0.00 | 58 | 1018.1 |
| 20260902172254 | 95 | 236 | 0.9 | 1.7 | 0.00 | 0.00 | 0.00 | 56 | 1018.1 |
| 20260902171748 | 93 | 88 | 0.0 | 1.7 | 0.00 | 0.00 | 0.00 | 61 | 1018.1 |
| 20260902171242 | 93 | 88 | 0.9 | 2.6 | 0.00 | 0.00 | 0.00 | 60 | 1018.2 |
| 20260902170738 | 92 | 326 | 0.9 | 2.6 | 0.00 | 0.00 | 0.00 | 59 | 1018.3 |
| 20260902170231 | 92 | 287 | 0.9 | 2.6 | 0.00 | 0.00 | 0.00 | 61 | 1018.3 |
| 20260902165724 | 93 | 236 | 0.9 | 2.6 | 0.00 | 0.00 | 0.00 | 63 | 1018.2 |
| 20260902165218 | 92 | 119 | 0.9 | 3.5 | 0.00 | 0.00 | 0.00 | 62 | 1018.3 |
| 20260902164712 | 92 | 261 | 0.9 | 3.5 | 0.00 | 0.00 | 0.00 | 61 | 1018.2 |
| 20260902164206 | 93 | 228 | 0.9 | 2.6 | 0.00 | 0.00 | 0.00 | 61 | 1018.2 |
| 20260902163701 | 92 | 265 | 0.9 | 2.6 | 0.00 | 0.00 | 0.00 | 61 | 1018.3 |
| 20260902163153 | 92 | 206 | 0.9 | 3.5 | 0.00 | 0.00 | 0.00 | 62 | 1018.3 |
| 20260902162648 | 91 | 261 | 0.9 | 3.5 | 0.00 | 0.00 | 0.00 | 62 | 1018.3 |
| 20260902162404 | 91 | 355 | 0.9 | 2.6 | 0.00 | 0.00 | 0.00 | 62 | 1018.4 |
| 20260902161637 | 92 | 108 | 0.9 | 2.6 | 0.00 | 0.00 | 0.00 | 61 | 1018.3 |
| 20260902161130 | 91 | 108 | 0.9 | 2.6 | 0.00 | 0.00 | 0.00 | 64 | 1018.3 |
| 20260902160625 | 91 | 264 | 0.9 | 2.6 | 0.00 | 0.00 | 0.00 | 63 | 1018.3 |
| 20260902160119 | 90 | 166 | 0.9 | 3.5 | 0.00 | 0.00 | 0.00 | 64 | 1018.3 |
| 20260902155612 | 89 | 166 | 0.0 | 3.5 | 0.00 | 0.00 | 0.00 | 67 | 1018.2 |
| 20260902155106 | 89 | 258 | 0.0 | 1.7 | 0.00 | 0.00 | 0.00 | 65 | 1018.2 |
| 20260902154600 | 88 | 258 | 0.9 | 2.6 | 0.00 | 0.00 | 0.00 | 69 | 1018.2 |
| 20260902154054 | 88 | 238 | 0.9 | 3.5 | 0.00 | 0.00 | 0.00 | 68 | 1018.2 |
| 20260902153549 | 88 | 66 | 0.9 | 3.5 | 0.00 | 0.00 | 0.00 | 71 | 1018.2 |
| 20260902153043 | 87 | 148 | 0.0 | 1.7 | 0.00 | 0.00 | 0.00 | 69 | 1018.2 |
| 20260902152539 | 87 | 166 | 0.9 | 2.6 | 0.00 | 0.00 | 0.00 | 70 | 1018.3 |
| 20260902152030 | 87 | 300 | 0.9 | 2.6 | 0.00 | 0.00 | 0.00 | 70 | 1018.3 |
| 20260902151525 | 86 | 254 | 1.7 | 2.6 | 0.00 | 0.00 | 0.00 | 70 | 1018.3 |
| 20260902151018 | 85 | 267 | 1.7 | 3.5 | 0.00 | 0.00 | 0.00 | 72 | 1018.5 |
| 20260902150729 | 85 | 287 | 0.9 | 3.5 | 0.00 | 0.00 | 0.00 | 74 | 1018.4 |
| 20260902150006 | 85 | 262 | 0.9 | 2.6 | 0.00 | 0.00 | 0.00 | 72 | 1018.4 |
| 20260902145500 | 85 | 263 | 0.0 | 1.7 | 0.00 | 0.00 | 0.00 | 72 | 1018.4 |
| 20260902145000 | 84 | 114 | 0.9 | 2.6 | 0.00 | 0.00 | 0.00 | 74 | 1018.5 |
| 20260902144500 | 84 | 44 | 0.9 | 2.6 | 0.00 | 0.00 | 0.00 | 74 | 1018.4 |
| 20260902144001 | 84 | 115 | 0.0 | 1.7 | 0.00 | 0.00 | 0.00 | 74 | 1018.3 |
| 20260902143459 | 84 | 80 | 0.0 | 1.7 | 0.00 | 0.00 | 0.00 | 75 | 1018.3 |
| 20260902143222 | 83 | 76 | 0.0 | 0.9 | 0.00 | 0.00 | 0.00 | 75 | 1018.2 |
| 20260902142722 | 83 | 76 | 0.0 | 2.6 | 0.00 | 0.00 | 0.00 | 78 | 1018.3 |
| 20260902141957 | 82 | 76 | 0.0 | 2.6 | 0.00 | 0.00 | 0.00 | 79 | 1018.3 |
| 20260902141458 | 82 | 30 | 0.0 | 1.7 | 0.00 | 0.00 | 0.00 | 80 | 1018.3 |
| 20260902141438 | 81 | 30 | 0.0 | 1.7 | 0.00 | 0.00 | 0.00 | 79 | 1018.2 |
| 20260902140454 | 81 | 43 | 0.0 | 1.7 | 0.00 | 0.00 | 0.00 | 81 | 1018.2 |
| 20260902135951 | 81 | 44 | 0.0 | 3.5 | 0.00 | 0.00 | 0.00 | 81 | 1018.2 |
| 20260902135451 | 80 | 44 | 0.0 | 3.5 | 0.00 | 0.00 | 0.00 | 82 | 1018.2 |
| 20260902135213 | 79 | 85 | 0.0 | 0.9 | 0.00 | 0.00 | 0.00 | 85 | 1018.1 |
| 20260902134451 | 78 | 85 | 0.0 | 0.9 | 0.00 | 0.00 | 0.00 | 86 | 1018.2 |
| 20260902134218 | 78 | 48 | 0.0 | 1.7 | 0.00 | 0.00 | 0.00 | 86 | 1018.2 |
| 20260902133452 | 78 | 48 | 0.0 | 1.7 | 0.00 | 0.00 | 0.00 | 86 | 1018.2 |
| 20260902132947 | 78 | 51 | 0.0 | 0.9 | 0.00 | 0.00 | 0.00 | 87 | 1018.1 |
| 20260902132448 | 78 | 51 | 0.0 | 0.9 | 0.00 | 0.00 | 0.00 | 88 | 1018.0 |
| 20260902131948 | 76 | 51 | 0.0 | 0.9 | 0.00 | 0.00 | 0.00 | 91 | 1018.1 |
| 20260902131448 | 76 | 51 | 0.0 | 1.7 | 0.00 | 0.00 | 0.00 | 91 | 1018.1 |
| 20260902130948 | 76 | 51 | 0.0 | 1.7 | 0.00 | 0.00 | 0.00 | 91 | 1018.1 |
| 20260902130447 | 76 | 38 | 0.0 | 1.7 | 0.00 | 0.00 | 0.00 | 91 | 1018.1 |
| 20260902125948 | 75 | 77 | 0.0 | 0.0 | 0.00 | 0.00 | 0.00 | 91 | 1018.0 |
| 20260902125449 | 75 | 77 | 0.0 | 0.0 | 0.00 | 0.00 | 0.00 | 92 | 1018.0 |
| 20260902124948 | 75 | 78 | 0.0 | 0.0 | 0.00 | 0.00 | 0.00 | 92 | 1018.0 |
| 20260902124448 | 75 | 77 | 0.0 | 0.0 | 0.00 | 0.00 | 0.00 | 91 | 1017.9 |
| 20260902123949 | 75 | 77 | 0.0 | 0.0 | 0.00 | 0.00 | 0.00 | 91 | 1018.0 |
| 20260902123448 | 74 | 77 | 0.0 | 0.0 | 0.00 | 0.00 | 0.00 | 91 | 1018.1 |
| 20260902122948 | 74 | 77 | 0.0 | 0.0 | 0.00 | 0.00 | 0.00 | 91 | 1018.1 |
| 20260902122448 | 74 | 77 | 0.0 | 0.0 | 0.00 | 0.00 | 0.00 | 91 | 1018.1 |
| 20260902121947 | 74 | 77 | 0.0 | 0.0 | 0.00 | 0.00 | 0.00 | 90 | 1018.2 |
| 20260902121710 | 74 | 77 | 0.0 | 0.0 | 0.00 | 0.00 | 0.00 | 90 | 1018.1 |
| 20260902120946 | 74 | 77 | 0.0 | 0.0 | 0.00 | 0.00 | 0.00 | 90 | 1018.1 |
| 20260902120446 | 74 | 77 | 0.0 | 0.0 | 0.00 | 0.00 | 0.00 | 90 | 1018.1 |
| 20260902115947 | 74 | 77 | 0.0 | 0.0 | 0.00 | 0.00 | 0.00 | 89 | 1018.0 |
| 20260902115449 | 73 | 78 | 0.0 | 0.0 | 0.00 | 0.00 | 0.00 | 89 | 1018.0 |
| 20260902114947 | 73 | 78 | 0.0 | 0.0 | 0.00 | 0.00 | 0.00 | 89 | 1017.9 |
| 20260902114445 | 73 | 78 | 0.0 | 0.0 | 0.00 | 0.00 | 0.00 | 89 | 1017.9 |
| 20260902113947 | 73 | 77 | 0.0 | 0.0 | 0.00 | 0.00 | 0.00 | 89 | 1017.8 |
| 20260902113443 | 74 | 78 | 0.0 | 0.0 | 0.00 | 0.00 | 0.00 | 89 | 1017.8 |
| 20260902113157 | 74 | 78 | 0.0 | 0.0 | 0.00 | 0.00 | 0.00 | 89 | 1017.9 |
| 20260902112439 | 74 | 78 | 0.0 | 0.0 | 0.00 | 0.00 | 0.00 | 89 | 1017.9 |
| 20260902111939 | 74 | 78 | 0.0 | 0.0 | 0.00 | 0.00 | 0.00 | 89 | 1017.9 |
| 20260902111703 | 74 | 77 | 0.0 | 0.0 | 0.00 | 0.00 | 0.00 | 88 | 1017.9 |
| 20260902110937 | 74 | 78 | 0.0 | 0.0 | 0.00 | 0.00 | 0.00 | 88 | 1017.9 |
| 20260902110438 | 74 | 77 | 0.0 | 0.0 | 0.00 | 0.00 | 0.00 | 88 | 1017.9 |
| 20260902105936 | 74 | 78 | 0.0 | 0.0 | 0.00 | 0.00 | 0.00 | 88 | 1017.9 |
| 20260902105436 | 74 | 78 | 0.0 | 0.0 | 0.00 | 0.00 | 0.00 | 88 | 1017.8 |
| 20260902104936 | 74 | 78 | 0.0 | 0.0 | 0.00 | 0.00 | 0.00 | 88 | 1017.8 |
| 20260902104429 | 74 | 78 | 0.0 | 0.0 | 0.00 | 0.00 | 0.00 | 88 | 1017.8 |
| 20260902103923 | 74 | 78 | 0.0 | 0.0 | 0.00 | 0.00 | 0.00 | 88 | 1017.8 |
| 20260902103417 | 74 | 78 | 0.0 | 0.0 | 0.00 | 0.00 | 0.00 | 87 | 1017.8 |
| 20260902102912 | 74 | 78 | 0.0 | 0.0 | 0.00 | 0.00 | 0.00 | 87 | 1017.7 |
| 20260902102405 | 74 | 78 | 0.0 | 0.0 | 0.00 | 0.00 | 0.00 | 87 | 1017.6 |
| 20260902101900 | 75 | 78 | 0.0 | 0.0 | 0.00 | 0.00 | 0.00 | 87 | 1017.6 |
| 20260902101353 | 75 | 78 | 0.0 | 0.0 | 0.00 | 0.00 | 0.00 | 87 | 1017.6 |
| 20260902100846 | 75 | 78 | 0.0 | 0.0 | 0.00 | 0.00 | 0.00 | 87 | 1017.6 |
| 20260902100341 | 75 | 77 | 0.0 | 0.0 | 0.00 | 0.00 | 0.00 | 87 | 1017.5 |
| 20260902095835 | 75 | 77 | 0.0 | 0.0 | 0.00 | 0.00 | 0.00 | 86 | 1017.5 |
| 20260902095329 | 75 | 78 | 0.0 | 0.0 | 0.00 | 0.00 | 0.00 | 86 | 1017.5 |
| 20260902094823 | 75 | 78 | 0.0 | 0.0 | 0.00 | 0.00 | 0.00 | 86 | 1017.4 |
| 20260902094317 | 75 | 78 | 0.0 | 0.0 | 0.00 | 0.00 | 0.00 | 86 | 1017.4 |
| 20260902093810 | 75 | 77 | 0.0 | 0.0 | 0.00 | 0.00 | 0.00 | 86 | 1017.4 |
| 20260902093304 | 76 | 77 | 0.0 | 0.0 | 0.00 | 0.00 | 0.00 | 86 | 1017.4 |
| 20260902092757 | 76 | 77 | 0.0 | 0.0 | 0.00 | 0.00 | 0.00 | 86 | 1017.4 |
| 20260902092251 | 76 | 78 | 0.0 | 0.0 | 0.00 | 0.00 | 0.00 | 86 | 1017.4 |
| 20260902091745 | 76 | 78 | 0.0 | 0.0 | 0.00 | 0.00 | 0.00 | 86 | 1017.3 |
| 20260902091732 | 76 | 78 | 0.0 | 0.0 | 0.00 | 0.00 | 0.00 | 86 | 1017.2 |
| 20260902090740 | 76 | 78 | 0.0 | 0.0 | 0.00 | 0.00 | 0.00 | 86 | 1017.2 |
| 20260902090240 | 76 | 77 | 0.0 | 0.0 | 0.00 | 0.00 | 0.00 | 86 | 1017.1 |
| 20260902090001 | 76 | 77 | 0.0 | 0.0 | 0.00 | 0.00 | 0.00 | 86 | 1017.1 |
| 20260902085236 | 76 | 78 | 0.0 | 0.0 | 0.00 | 0.00 | 0.00 | 86 | 1017.1 |
| 20260902084954 | 76 | 78 | 0.0 | 0.9 | 0.00 | 0.00 | 0.00 | 86 | 1017.1 |
| 20260902084551 | 76 | 77 | 0.0 | 0.9 | 0.00 | 0.00 | 0.00 | 86 | 1017.1 |
| 20260902084450 | 76 | 78 | 0.0 | 0.9 | 0.00 | 0.00 | 0.00 | 85 | 1017.1 |
| 20260902083455 | 76 | 77 | 0.0 | 0.9 | 0.00 | 0.00 | 0.00 | 85 | 1017.1 |
| 20260902082729 | 76 | 77 | 0.0 | 0.9 | 0.00 | 0.00 | 0.00 | 85 | 1017.2 |
| 20260902082229 | 76 | 78 | 0.0 | 0.0 | 0.00 | 0.00 | 0.00 | 85 | 1017.2 |
| 20260902081946 | 76 | 78 | 0.0 | 0.9 | 0.00 | 0.00 | 0.00 | 85 | 1017.1 |
| 20260902081226 | 76 | 78 | 0.0 | 0.9 | 0.00 | 0.00 | 0.00 | 85 | 1017.1 |
| 20260902080949 | 76 | 77 | 0.0 | 0.0 | 0.00 | 0.00 | 0.00 | 85 | 1017.2 |
| 20260902080225 | 76 | 77 | 0.0 | 0.0 | 0.00 | 0.00 | 0.00 | 84 | 1017.3 |
| 20260902075723 | 76 | 78 | 0.0 | 0.0 | 0.00 | 0.00 | 0.00 | 84 | 1017.3 |
| 20260902075222 | 76 | 77 | 0.0 | 0.0 | 0.00 | 0.00 | 0.00 | 84 | 1017.3 |
| 20260902074944 | 76 | 78 | 0.0 | 0.9 | 0.00 | 0.00 | 0.00 | 84 | 1017.2 |
| 20260902074223 | 76 | 77 | 0.0 | 0.9 | 0.00 | 0.00 | 0.00 | 83 | 1017.2 |
| 20260902073945 | 76 | 77 | 0.0 | 0.9 | 0.00 | 0.00 | 0.00 | 84 | 1017.2 |
| 20260902073217 | 77 | 77 | 0.0 | 0.9 | 0.00 | 0.00 | 0.00 | 83 | 1017.2 |
| 20260902072711 | 77 | 78 | 0.0 | 0.0 | 0.00 | 0.00 | 0.00 | 83 | 1017.2 |
| 20260902072211 | 77 | 77 | 0.0 | 0.0 | 0.00 | 0.00 | 0.00 | 83 | 1017.2 |
| 20260902071712 | 77 | 77 | 0.0 | 0.9 | 0.00 | 0.00 | 0.00 | 83 | 1017.2 |
| 20260902071210 | 77 | 78 | 0.0 | 0.9 | 0.00 | 0.00 | 0.00 | 84 | 1017.1 |
| 20260902070711 | 77 | 77 | 0.0 | 0.0 | 0.00 | 0.00 | 0.00 | 84 | 1017.1 |
| 20260902070700 | 77 | 77 | 0.0 | 0.9 | 0.00 | 0.00 | 0.00 | 83 | 1017.0 |